Location: Newark
(33.6439°N, 114.9881°W)
Time: 16:15:50
(UTC+00:00)

A-11 Canister half - Pass Details

Date: 29 August 2019
Orbit: 1527 x 1682 km, 47.3° (Epoch: 16 September)

Event Time Altitude Azimuth Distance (km) Brightness Sun altitude
Rises 13:55:37 0° 165° (SSE) 4,728 11.7 8.2°
Reaches altitude 10° 14:03:04 10° 127° (SE) 3,798 11.9 9.7°
Maximum altitude 14:04:13 10° 120° (ESE) 3,786 12.1 10.0°
Drops below altitude 10° 14:05:22 10° 113° (ESE) 3,815 12.4 10.2°
Sets 14:12:56 0° 76° (ENE) 4,857 13.5 11.8°
